|
Cosmos 1470 - Orbit
|
Blue Mountain Vista Observatory;
20:35:12
| Home | Info | Passes |
|
View from above orbital plane
|
View from above satellite
|
Ground track
|
The orbit data is extracted from the following two-line orbital elements,
1 14147U 83061A 13140.81022908 .00002928 00000-0 20742-3 0 7137
2 14147 082.5097 052.9395 0014071 354.0733 006.0324 15.04390763380465
| Epoch (UTC): | 20 May 2013 19:26:43 |
| Eccentricity: | 0.0014071 |
| inclination: | 82.5097° |
| perigee height: | 543 km |
| apogee height: | 563 km |
| right ascension of ascending node: | 52.9395° |
| argument of perigee: | 354.0733° |
| revolutions per day: | 15.04390763 |
| mean anomaly at epoch: | 6.0324° |
| orbit number at epoch: | 38046 |
The dashed part of the orbit path shows where the satellite is in the earth's shadow,
|
|